�������r�C�����j�^�v���󋵏��
Date,Time,5�C6���@���p�r�C��,����,����(m/s)
2022/02/21,00:00,4.1,���쐼,5.9
2022/02/21,00:10,4.2,���쐼,4.9
2022/02/21,00:20,3.8,��,5.0
2022/02/21,00:30,4.1,�k��,1.7
2022/02/21,00:40,4.0,���k��,2.3
2022/02/21,00:50,4.3,���쐼,3.0
2022/02/21,01:00,3.9,��,3.6
2022/02/21,01:10,4.1,��,5.1
2022/02/21,01:20,4.1,���k��,5.0
2022/02/21,01:30,4.2,�k��,3.4
2022/02/21,01:40,3.9,���k��,4.2
2022/02/21,01:50,4.2,���k��,6.9
2022/02/21,02:00,4.2,��,7.9
2022/02/21,02:10,4.1,���k��,9.1
2022/02/21,02:20,4.2,���k��,8.7
2022/02/21,02:30,4.0,���k��,7.2
2022/02/21,02:40,4.1,���k��,9.3
2022/02/21,02:50,4.0,���k��,9.1
2022/02/21,03:00,4.1,��,10.2
2022/02/21,03:10,4.2,��,7.7
2022/02/21,03:20,4.1,��,7.8
2022/02/21,03:30,4.1,���k��,8.4
2022/02/21,03:40,4.3,��,7.9
2022/02/21,03:50,4.1,���k��,7.2
2022/02/21,04:00,3.9,��,6.2
2022/02/21,04:10,4.2,��,9.0
2022/02/21,04:20,4.1,���k��,11.0
2022/02/21,04:30,4.2,��,8.6
2022/02/21,04:40,4.1,���k��,7.3
2022/02/21,04:50,4.0,��,6.2
2022/02/21,05:00,3.9,��,6.4
2022/02/21,05:10,4.0,��,7.9
2022/02/21,05:20,4.1,���k��,9.0
2022/02/21,05:30,3.9,��,6.3
2022/02/21,05:40,3.8,��,6.8
2022/02/21,05:50,4.2,���k��,6.4
2022/02/21,06:00,4.0,��,6.4
2022/02/21,06:10,4.2,��,5.9
2022/02/21,06:20,4.2,��,8.2
2022/02/21,06:30,4.1,��,8.0
2022/02/21,06:40,4.1,��,8.0
2022/02/21,06:50,4.0,��,7.5
2022/02/21,07:00,4.0,��,7.3
2022/02/21,07:10,4.1,��,5.6
2022/02/21,07:20,4.1,���k��,9.1
2022/02/21,07:30,4.2,���k��,8.4
2022/02/21,07:40,4.1,���k��,6.8
2022/02/21,07:50,4.0,��,8.9
2022/02/21,08:00,4.1,��,9.4
2022/02/21,08:10,4.1,��,8.4
2022/02/21,08:20,4.1,��,9.0
2022/02/21,08:30,4.1,��,7.4
2022/02/21,08:40,4.2,��,6.2
2022/02/21,08:50,4.2,��,6.2
2022/02/21,09:00,4.1,��,7.0
2022/02/21,09:10,4.1,��,10.3
2022/02/21,09:20,4.0,���k��,9.3
2022/02/21,09:30,4.0,���k��,7.8
2022/02/21,09:40,3.9,�k��,4.4
2022/02/21,09:50,4.1,���k��,3.6
2022/02/21,10:00,4.0,��,6.5
2022/02/21,10:10,4.2,�k��,6.2
2022/02/21,10:20,3.8,��,8.9
2022/02/21,10:30,4.1,��,9.0
2022/02/21,10:40,4.1,���k��,11.1
2022/02/21,10:50,4.1,���k��,7.2
2022/02/21,11:00,4.0,��,9.3
2022/02/21,11:10,4.1,���k��,8.4
2022/02/21,11:20,4.0,���k��,10.0
2022/02/21,11:30,4.2,��,11.8
2022/02/21,11:40,4.3,��,9.4
2022/02/21,11:50,4.0,���k��,10.2
2022/02/21,12:00,4.2,��,10.2
2022/02/21,12:10,4.2,��,9.5
2022/02/21,12:20,3.9,��,8.8
2022/02/21,12:30,4.1,��,11.3
2022/02/21,12:40,4.2,��,8.0
2022/02/21,12:50,4.1,��,13.3
2022/02/21,13:00,4.1,��,13.0
2022/02/21,13:10,4.1,��,8.5
2022/02/21,13:20,4.0,���k��,11.1
2022/02/21,13:30,4.0,�k�k��,7.9
2022/02/21,13:40,4.2,�k��,7.2
2022/02/21,13:50,4.2,�k��,8.7
2022/02/21,14:00,4.2,���k��,6.3
2022/02/21,14:10,4.1,�k��,9.6
2022/02/21,14:20,4.1,�k��,10.2
2022/02/21,14:30,4.0,�k��,8.3
2022/02/21,14:40,4.0,�k��,6.8
2022/02/21,14:50,4.0,�k�k��,9.5
2022/02/21,15:00,4.0,�k�k��,8.3
2022/02/21,15:10,4.3,�k�k��,9.3
2022/02/21,15:20,4.1,�k�k��,8.6
2022/02/21,15:30,4.1,�k��,8.8
2022/02/21,15:40,4.1,�k��,5.6
2022/02/21,15:50,4.0,�k�k��,7.7
2022/02/21,16:00,4.1,�k�k��,9.2
2022/02/21,16:10,4.1,�k�k��,6.3
2022/02/21,16:20,4.1,�k��,5.9
2022/02/21,16:30,4.1,�k��,7.7
2022/02/21,16:40,4.2,�k��,8.8
2022/02/21,16:50,4.1,�k��,9.4
2022/02/21,17:00,4.0,�k��,7.4
2022/02/21,17:10,4.0,�k��,5.7
2022/02/21,17:20,4.3,���k��,5.5
2022/02/21,17:30,4.1,���k��,6.5
2022/02/21,17:40,4.1,�k��,5.4
2022/02/21,17:50,4.1,�k��,5.4
2022/02/21,18:00,4.2,�k��,6.4
2022/02/21,18:10,4.0,�k��,5.2
2022/02/21,18:20,4.1,�k�k��,5.5
2022/02/21,18:30,4.1,�k��,6.2
2022/02/21,18:40,4.1,�k��,5.6
2022/02/21,18:50,4.0,�k��,4.8
2022/02/21,19:00,4.1,�k��,4.1
2022/02/21,19:10,4.1,�k��,3.6
2022/02/21,19:20,4.1,�k�k��,4.8
2022/02/21,19:30,4.1,�k��,6.0
2022/02/21,19:40,4.1,�k��,5.2
2022/02/21,19:50,4.3,�k��,4.8
2022/02/21,20:00,4.0,�k��,4.5
2022/02/21,20:10,4.2,�k��,5.0
2022/02/21,20:20,4.0,�k��,3.6
2022/02/21,20:30,3.9,�k��,2.6
2022/02/21,20:40,4.1,�k��,5.8
2022/02/21,20:50,3.9,�k�k��,5.6
2022/02/21,21:00,4.2,�k��,7.0
2022/02/21,21:10,4.3,�k�k��,6.9
2022/02/21,21:20,4.0,�k�k��,7.0
2022/02/21,21:30,4.0,�k�k��,6.2
2022/02/21,21:40,4.0,�k��,5.7
2022/02/21,21:50,4.1,�k��,4.6
2022/02/21,22:00,4.2,���k��,5.0
2022/02/21,22:10,4.0,���k��,5.2
2022/02/21,22:20,4.2,�k��,4.6
2022/02/21,22:30,4.2,�k��,1.4
2022/02/21,22:40,4.2,��,0.6
2022/02/21,22:50,4.2,�k��,1.9
2022/02/21,23:00,4.1,��,1.4
2022/02/21,23:10,4.3,�k��,2.5
2022/02/21,23:20,4.0,�k��,2.6
2022/02/21,23:30,4.1,�k��,2.9
2022/02/21,23:40,4.0,�k��,3.0
2022/02/21,23:50,4.2,�k��,2.2
